Location: Melbourne
(37.8120°S, 144.9677°E)
Time: 07:57:47
(UTC+10:00)

ISS - Visible Passes

Search period start: 28 May 2015 00:00
Search period end: 07 June 2015 00:00
Orbit: 399 x 404 km, 51.6° (Epoch: 27 May)

Date Brightness Start Highest point End Pass type
(mag) Time Alt. Az. Time Alt. Az. Time Alt. Az.
28 May -2.0 18:05:46 10° WSW 18:08:56 42° NW 18:12:02 10° NNE visible
30 May -0.1 17:56:23 10° W 17:58:40 17° NW 18:00:51 10° N visible
06 Jun -2.2 06:49:54 10° NNW 06:53:05 48° NE 06:56:19 10° ESE visible
